DMSP 5D-2 F13 DEB, 40527

Orbit data source: Space-Track

DMSP 5D-2 F13 DEB, 40527 is space debris in SSO originally from a launch on Fri, 24 Mar 1995 UTC launched from the Air Force Western Test Range (AFWTR). Debris objects in space refer to the collection of defunct objects orbiting the Earth. Examples of debris include non-operational satellites, rocket bodies, and fragments generated from explosions, collisions, or faulty payload assembly.

Loading next visibility...
Identifier
40527, 1995-015DP
Orbit
SSO
Country
Flag of USUS
Related business
Manufacturer
Unknown
Mission
Spacecraft
Bus & Motor
Unknown
Mass
Unknown
Launch date (UTC)
1995-03-24 (31 years ago)
Launch vehicle
Unknown
Launch site
Air Force Western Test Range (AFWTR)
Object type
Payload
Rocket body
Debris
Shape & HBR
Unknown shape, 0.1 m
Radar Cross Section
Small (<0.1 m²)

Expand to show TLE details & history
Last TLE update: 10 hours ago

TLE from 10 hours ago
0 DMSP 5D-2 F13 DEB
1 40527U 95015DP  26036.41959495  .00006583  00000-0  27801-2 0  9993
2 40527  98.9461  30.2461 0040799  46.7962 313.6612 14.25467519559854
Epoch: 2026-02-05T10:04Z
TLE epoch observation values (Epoch: 2026-02-05T10:04:13.003Z)
Latitude
-0.00012°
Longitude
103.61985°
Altitude
789.656 km
Speed
7.469 km/s
True Right ascension
02h 00m 59s
True Declination
0° 00' 00"
Sunlit
Object was in daylight at epoch
Visualization orbit readout
Latitude
Unknown
Longitude
Unknown
Altitude
Unknown
Speed
Unknown
Apparent Right ascension
Unknown
Apparent Declination
Unknown
Sunlit
N/A
Visualization observer readout
Local Sidereal Time
22:16:00
Azimuth
Unknown
Elevation
Unknown
Doppler factor
Unknown
Orbital elements
Apogee altitude
833.387 km
Perigee altitude
774.781 km
Semi-major axis
7,182.221 km
Eccentricity
0.00408
Inclination
98.9461°
RAAN
30.2461°
Arg. of periapsis
46.7962°
True anomaly
313.32179°
Mean anomaly
313.6612°
Eccentric anomaly
313.49161°
Mean motion
3.56578 °/min
Orbital period
100.96 mins
BSTAR
0.0027801
Loading maneuver chart data...
Computing Atmospheric mass density...

Documentation

Showing up to 5 results
|